Location: ????????
(55.4744°N, 37.8028°E)
Time: 08:34:48
(UTC+00:00)

Daily predictions for brighter satellites

Satellite Brightness Start Highest point End
(mag) Time Altitude Azimuth Time Altitude Azimuth Time Altitude Azimuth
NOSS 3-2 (C) 4.1 13:34:04 10° S 13:38:39 33° ESE 13:44:03 10° ENE
Cosmos 2297 Rocket 2.6 13:34:12 10° NW 13:39:52 72° WSW 13:45:31 10° SSE
Cosmos 2034 Rocket 4.3 13:34:39 10° SSW 13:41:00 75° WNW 13:47:26 10° N
Cosmos 2266 Rocket 4.2 13:35:16 10° N 13:41:13 47° ENE 13:47:02 10° SE
ACS3 Solar Sail 4.3 13:38:43 10° WSW 13:41:25 13° WNW 13:44:10 10° NW
Meteor 1-20 Rocket 4.3 13:36:25 10° N 13:41:47 53° ENE 13:47:07 10° SE
Cosmos 1626 Rocket 3.5 13:37:26 10° N 13:41:47 82° ENE 13:46:05 10° SSE
Cosmos 1356 Rocket 3.4 13:39:36 10° SSW 13:43:41 88° WNW 13:47:49 10° NNE
Cosmos 2228 3.0 13:40:18 10° S 13:44:32 75° E 13:48:47 10° NNE
SJ 16-02 3.7 13:46:02 10° NW 13:47:16 11° NNW 13:48:31 10° NNW
Cosmos 2084 4.0 13:44:07 10° W 13:48:10 47° NNW 13:52:11 10° NE
Cosmos 44 Rocket 4.2 13:45:05 10° NW 13:49:40 33° NNE 13:54:20 10° E
Iridium 51 3.7 13:47:20 10° S 13:50:29 75° E 13:53:44 10° N
JB-3 4.3 13:49:20 10° NNE 13:52:55 53° E 13:56:29 10° S
Cosmos 1315 Rocket 3.1 13:50:15 10° SSW 13:54:03 65° WNW 13:57:52 10° N
IGS 5A 3.5 13:50:40 10° SE 13:54:31 53° ENE 13:58:25 10° N
CZ-4C R/B 3.5 13:49:11 10° NW 13:55:46 65° SW 14:04:03 10° SSE
Cosmos 1461 3.4 13:52:36 10° SSW 13:56:16 39° SE 13:59:53 10° ENE
Cosmos 2151 2.9 13:52:27 10° N 13:56:36 64° ENE 14:00:45 10° SSE
Cosmos 1867 4.2 13:52:34 10° NW 13:57:58 63° SW 14:03:20 10° SSE
ARIANE 5 R/B 3.0 13:54:13 10° SE 13:58:56 40° ENE 14:03:45 10° N
Cosmos 1844 Rocket 3.7 13:55:50 10° NNW 14:00:32 26° NNE 14:05:13 10° E
USA 290 4.1 13:58:13 10° NW 14:01:15 36° WSW 14:04:16 10° S
CORIOLIS 4.2 13:58:54 10° SE 14:04:05 56° ENE 14:09:20 10° N
Cosmos 1544 Rocket 3.6 13:59:45 10° S 14:04:09 70° E 14:08:35 10° NNE
Cosmos 2219 3.5 13:58:46 10° NNW 14:04:20 48° NE 14:09:53 10° ESE
CENTAUR R/B 2.9 14:00:02 10° WSW 14:06:09 66° NNW 14:13:39 11° NE
Cosmos 1980 Rocket 3.6 14:03:10 10° SE 14:07:05 20° E 14:10:31 12° ENE
Cosmos 2263 Rocket 2.2 14:04:14 10° NNW 14:09:53 65° NE 14:15:33 10° SE
H-2A R/B 4.5 14:08:28 10° N 14:11:10 19° WNW 14:13:50 10° WSW
IRS-1C 4.3 14:06:32 10° SE 14:11:38 49° ENE 14:16:46 10° N
Meteor 1-28 Rocket 3.4 14:12:44 10° NNE 14:15:55 40° E 14:19:05 10° S
CBERS-1 4.1 14:12:35 10° SSE 14:17:43 86° WSW 14:22:52 10° NNW
Cosmos 1943 Rocket 4.0 14:15:19 10° NW 14:18:41 16° N 14:22:04 10° NE
Meteor 1-5 Rocket 4.2 14:14:07 10° N 14:19:22 54° ENE 14:24:44 10° SSE
NOSS 2-2 (D) 2.7 14:18:08 10° WSW 14:21:14 76° NW 14:23:27 17° NE
Cosmos 1602 Rocket 3.7 14:17:11 10° NNW 14:21:35 76° W 14:25:54 10° S
CZ-2D R/B 3.2 14:21:44 10° SE 14:24:41 38° ENE 14:27:39 10° N
Cosmos 1782 2.8 14:22:02 10° SSW 14:25:37 71° WNW 14:29:13 10° N
SPOT 1/Viking Rocket 4.1 14:21:17 10° SE 14:25:58 35° ENE 14:30:40 10° N
SAR-Lupe-4 3.8 14:23:40 10° SE 14:27:05 46° ENE 14:30:31 10° N
AQUARIUS 4.4 14:23:05 10° SE 14:27:17 45° ENE 14:31:31 10° N
Cosmos 1538 Rocket 4.0 14:22:07 10° NNW 14:27:24 68° ENE 14:32:42 10° SE
NOSS 2-3 (E) 4.5 14:24:34 10° S 14:27:34 24° ESE 14:29:28 17° E
YAOGAN 1 3.6 14:24:38 10° ESE 14:27:58 23° ENE 14:31:19 10° N
Meteor 1-25 Rocket 4.3 14:24:16 10° NNW 14:30:08 88° ENE 14:35:54 10° SSE
Cosmos 2227 Rocket 2.7 14:26:03 10° NW 14:31:39 66° WSW 14:37:14 10° SSE
Okean 1-7 Rocket 3.6 14:29:11 10° NNW 14:33:36 83° W 14:37:57 10° S
SL-16 R/B 2.5 14:28:45 10° NNE 14:35:01 80° ESE 14:41:14 10° SSW
Cosmos 2369 Rocket 3.8 14:32:42 10° W 14:37:14 24° NNW 14:41:50 10° NNE
Cosmos 1933 3.2 14:34:25 10° S 14:38:10 56° E 14:41:44 11° NNE
Cosmos 1743 4.2 14:36:30 10° NNW 14:39:27 32° W 14:42:22 10° SSW
Cosmos 1503 Rocket 3.9 14:34:31 10° SSW 14:39:44 80° ESE 14:44:30 12° NNE
USA 238 DEB 4.3 14:34:44 10° S 14:40:09 33° ESE 14:44:05 18° ENE
MOS 1 Rocket 3.5 14:35:17 10° SSE 14:40:17 60° ENE 14:45:31 10° N
USA 238 4.3 14:34:51 10° S 14:40:17 33° ESE 14:44:11 18° ENE
SAR-Lupe-1 4.1 14:36:59 10° SSE 14:40:32 56° ENE 14:44:06 10° N
SMAP 3.1 14:36:38 10° SSE 14:41:18 89° WSW 14:46:00 10° NNW
Lacrosse 4 Rocket 3.1 14:39:20 10° W 14:42:33 22° NNW 14:45:13 13° NNE
PSLV R/B 4.4 14:40:53 12° ESE 14:43:51 25° ENE 14:47:13 10° N
Landsat 7 3.7 14:40:28 10° SSE 14:45:07 81° ENE 14:49:49 10° NNW
Cosmos 1697 Rocket 2.7 14:39:58 10° SSW 14:45:30 64° ESE 14:49:54 17° NE
USA 215 3.3 14:40:15 17° ENE 14:45:33 82° N 14:52:08 10° W
Cosmos 1953 Rocket 3.5 14:42:15 10° N 14:46:42 65° ENE 14:51:08 10° SSE
Lacrosse 5 rocket 1.0 14:43:29 10° W 14:47:12 67° N 14:49:01 27° ENE
Thor Agena Rocket 3.9 14:43:32 10° S 14:48:42 68° WSW 14:53:49 10° NNW
NOSS 2-2 (E) 3.0 14:46:46 10° WSW 14:49:49 55° NNW 14:51:12 27° NE
Cosmos 1656 4.2 14:45:19 10° SW 14:50:55 59° NW 14:55:57 13° NNE
Cosmos 2360 4.4 14:45:23 10° SW 14:51:07 72° NW 14:56:03 14° NNE
Cosmos 1354 Rocket 4.0 14:46:09 10° SSW 14:51:23 73° ESE 14:55:39 16° NNE
Cosmos 1777 Rocket 4.1 14:46:24 10° SSW 14:51:40 77° WNW 14:56:25 13° NNE
SJ-12 3.6 14:48:23 10° SSE 14:52:10 80° ENE 14:55:59 10° NNW
Cosmos 2278 Rocket 3.9 14:48:46 10° NW 14:52:24 17° N 14:54:34 14° NNE
BREEZE-M DEB (TANK) 4.4 14:50:14 10° WSW 14:53:17 42° S 15:01:41 10° ESE
Cosmos 1825 Rocket 3.8 14:49:34 10° NNW 14:53:55 71° W 14:58:11 10° S
Cosmos 1076 Rocket 3.4 14:51:30 10° N 14:55:51 84° ENE 15:00:10 10° SSE
Cosmos 1898 Rocket 4.3 14:53:17 10° SSE 14:57:45 31° ESE 14:59:22 25° ENE
NOSS 2-2 (C) 4.0 14:55:20 10° W 14:58:03 30° NNW 14:59:06 23° NNE
ERS-1 4.4 14:54:32 10° SSE 14:59:31 87° ENE 15:04:31 10° NNW
Cosmos 2112 Rocket 4.3 14:54:57 10° NNW 14:59:55 42° NE 15:04:01 15° ESE
Spot 4 Rocket 4.2 14:55:15 10° SE 15:00:07 46° ENE 15:05:00 10° N
IRS-P3 4.0 14:55:19 10° SSE 15:00:37 79° ENE 15:05:58 10° NNW
Cosmos 2098 Rocket 4.3 14:58:38 10° SW 15:03:09 49° WNW 15:08:22 10° N
Cosmos 1805 2.9 15:02:16 10° N 15:05:35 53° ENE 15:08:53 10° SSE
Cosmos 1655 Rocket 4.0 15:01:41 10° NNW 15:07:57 87° W 15:14:11 10° S
Cosmos 923 Rocket 3.9 15:03:34 10° NNW 15:08:46 68° ENE 15:13:56 10° SE
Radarsat Rocket 4.5 15:02:05 10° SE 15:09:41 60° ENE 15:16:25 10° NNW
Cosmos 1937 Rocket 4.2 15:07:22 10° SSE 15:11:48 30° ESE 15:12:17 29° E
Cosmos 990 Rocket 3.9 15:09:01 10° SSW 15:14:10 89° ESE 15:17:45 21° NNE
Cosmos 1844 3.9 15:09:19 10° NNW 15:14:46 48° NE 15:17:29 27° ESE
GEOS 3 Rocket 4.0 15:12:45 29° ENE 15:15:09 48° SE 15:20:21 10° SSW
Resurs 01 Rocket 3.2 15:18:08 20° NNE 15:18:08 20° NNE 15:19:51 10° N
Cosmos 494 Rocket 4.1 15:15:01 10° NNW 15:20:09 49° NE 15:22:41 27° ESE
Cosmos 2082 3.8 15:15:07 10° NW 15:20:52 80° WSW 15:26:35 10° SSE
Meteor 2-11 Rocket 4.5 15:14:53 10° N 15:20:57 55° ENE 15:26:58 10° SSE
Gbstr 26 Del rocket 3.4 15:18:18 10° SW 15:22:02 39° SSE 15:22:51 34° SE
SJ-7 4.2 15:23:14 41° ESE 15:24:14 56° ENE 15:27:58 10° N
NOSS 3-2 (A) 3.8 15:19:43 10° W 15:25:09 53° NNW 15:28:38 27° NE
Cosmos 2084 4.5 15:23:53 10° WNW 15:27:34 29° N 15:28:08 28° NNE
Cosmos 2058 Rocket 3.0 15:23:41 10° S 15:28:06 62° E 15:29:48 35° NNE
NOSS 3-2 (C) 3.4 15:23:34 10° WSW 15:28:57 74° NNW 15:32:13 30° NE
CZ-4 R/B 4.3 15:25:44 10° SSE 15:29:40 83° WSW 15:33:40 10° NNW
IRAS Rocket 4.1 15:25:03 10° SE 15:30:28 66° ENE 15:35:55 10° NNW
Cosmos 44 Rocket 3.3 15:26:38 10° NW 15:31:47 76° NE 15:34:02 34° ESE
Cosmos 1606 Rocket 4.3 15:27:58 10° SSW 15:32:18 53° WNW 15:36:36 11° N
Cosmos 2227 4.1 15:27:15 10° NNW 15:32:56 69° NE 15:36:18 25° SE
Cosmos 1461 3.5 15:29:13 10° WSW 15:33:00 45° NNW 15:34:00 37° N
Aureole 1 Rocket 3.5 15:29:00 10° SSW 15:33:54 72° ESE 15:37:03 29° NE
Meteor 2-9 Rocket 4.3 15:30:53 10° N 15:36:01 43° ENE 15:36:10 43° ENE
SL-16 R/B 3.9 15:32:29 10° SSE 15:34:05 16° SE 15:34:05 16° SE
ARIANE 5 R/B 3.7 15:33:07 10° S 15:37:59 43° W 15:42:55 10° NNW
Okean 1 4.1 15:35:46 10° S 15:37:57 34° SSE 15:37:57 34° SSE
Cosmos-2242 2.8 15:35:29 10° S 15:39:43 73° E 15:40:30 56° NE
Cosmos 1680 Rocket 3.4 15:34:50 10° NNW 15:40:06 85° ENE 15:45:17 10° SSE
Cosmos 1844 Rocket 2.6 15:39:40 10° NNW 15:45:22 73° NE 15:47:51 35° SE
Meteor 2-20 4.5 15:40:03 10° SSW 15:46:13 80° WNW 15:52:24 10° N
Resurs 1-3 3.5 15:42:47 10° SSE 15:47:06 88° WSW 15:51:27 10° NNW
Cosmos 2219 4.2 15:43:04 10° NW 15:48:32 47° WSW 15:53:59 10° S
Nadezhda 2 Rocket 4.4 15:43:02 10° NNW 15:49:12 85° W 15:55:18 10° S
NOAA 6 3.8 15:44:10 10° SSE 15:49:15 75° ENE 15:54:22 10° NNW
Cosmos 1980 Rocket 2.1 15:44:38 10° SSW 15:50:18 85° ESE 15:52:17 43° NE
USA 281 4.0 15:50:37 31° NE 15:50:49 31° NE 15:56:26 10° NNW
Cosmos 2263 Rocket 4.0 15:48:32 10° NW 15:53:29 32° WSW 15:58:26 10° SSW
OceanSat 1 rocket 4.5 15:50:00 10° SSE 15:54:44 88° ENE 15:59:28 10° NNW
Meteor 2-2 Rocket 4.1 15:51:22 10° S 15:57:00 84° ESE 16:00:12 27° NNE
Cosmos 1553 Rocket 3.9 15:51:37 10° S 15:57:48 76° E 16:04:08 10° NNE
CENTAUR R/B 3.4 15:51:24 10° WNW 15:57:58 47° N 16:00:45 35° NE
CZ-2D R/B 4.0 15:54:39 10° S 15:58:46 58° WSW 16:02:50 10° NNW
EO 1 Delta rocket 4.3 15:58:37 55° E 15:58:53 55° ENE 16:05:12 10° N
NOSS 2-3 (C) 3.6 15:56:53 10° SW 15:59:41 56° WSW 15:59:41 56° WSW
COSMOS 2455 3.5 15:55:10 10° S 15:59:48 37° SE 15:59:48 37° SE
Meteor 1-26 Rocket 4.0 15:55:50 10° SSW 16:01:14 89° WNW 16:03:54 32° NNE
YAOGAN 1 2.9 15:59:16 10° S 16:03:29 62° WSW 16:07:44 10° NNW
Cosmos 1943 Rocket 3.7 16:00:16 10° NNW 16:03:34 21° N 16:03:34 21° N
Cosmos 1709 Rocket 3.9 15:58:53 10° N 16:04:57 60° ENE 16:05:39 56° ESE
SPOT 1/Viking Rocket 4.4 16:00:08 10° S 16:05:11 50° W 16:10:17 10° NNW
Meteor 2-20 Rocket 4.4 16:01:11 10° SSW 16:07:20 78° WNW 16:12:37 14° N
Cosmos 1745 Rocket 3.8 16:03:45 10° N 16:09:59 81° ENE 16:16:08 10° SSE
Cosmos 2369 3.6 16:04:26 10° SSW 16:10:08 74° ESE 16:10:35 70° E
NOSS 2-3 (D) 4.1 16:12:09 10° WSW 16:15:00 48° W 16:15:00 48° W
SKYMED 2 3.8 16:16:13 67° WNW 16:16:13 67° WNW 16:20:27 10° SSW
NOSS 2-3 (E) 4.2 16:13:30 10° WSW 16:16:17 46° W 16:16:17 46° W
SL-16 R/B 4.2 16:12:50 10° N 16:18:05 30° NW 16:23:19 10° WSW
PSLV R/B 4.2 16:17:07 29° SSW 16:18:50 49° W 16:22:49 10° NNW
Lacrosse 4 Rocket 3.9 16:19:38 10° NW 16:20:42 13° NNW 16:20:42 13° NNW
Cosmos 2369 Rocket 4.1 16:19:43 10° NW 16:23:22 17° N 16:23:38 17° N
Lacrosse 5 rocket 2.9 16:20:38 10° WNW 16:22:36 30° WNW 16:22:36 30° WNW
COSMO-SKYMED 1 4.3 16:27:44 23° SSW 16:27:44 23° SSW 16:29:21 10° SSW
USA 215 3.1 16:27:35 67° E 16:28:34 85° N 16:35:10 10° WNW
Cosmos 1697 Rocket 3.8 16:24:37 10° WSW 16:29:49 37° NW 16:31:37 30° N
USA 238 DEB 3.5 16:24:11 10° SW 16:30:29 82° NW 16:31:31 66° NE
USA 238 3.5 16:24:16 10° SW 16:30:36 83° NW 16:31:37 66° NE
Cosmos 2278 Rocket 3.8 16:33:36 10° NNW 16:36:24 22° N 16:36:24 22° N
Cosmos 1898 Rocket 3.9 16:34:23 10° SW 16:39:29 57° NW 16:39:35 57° NW
Cosmos 2333 Rocket 4.4 16:35:51 10° S 16:36:34 14° S 16:36:34 14° S
Cosmos 967 Rocket 4.5 16:38:35 10° SW 16:44:23 74° SSW 16:44:23 74° SSW
Resurs 01 Rocket 4.0 16:55:31 17° NNW 16:55:31 17° NNW 16:56:35 10° NNW
GEOS 3 Rocket 4.1 16:53:48 57° WNW 16:53:48 57° WNW 16:58:33 10° WSW
Cosmos 1937 Rocket 4.3 16:48:19 10° SW 16:52:25 49° W 16:52:25 49° W
Meteor 1-11 Rocket 4.2 16:50:29 10° NNW 16:55:23 59° NW 16:55:23 59° NW
NOSS 3-2 (A) 4.5 17:11:17 10° WNW 17:15:59 40° NNW 17:15:59 40° NNW
SL-16 R/B 4.2 17:14:27 10° SSW 17:15:59 19° SSW 17:15:59 19° SSW
NOSS 3-2 (C) 4.4 17:15:04 10° WNW 17:19:38 41° NNW 17:19:38 41° NNW
Cosmos 1844 Rocket 4.4 17:24:04 10° NW 17:28:48 28° WSW 17:29:33 27° WSW
USA 281 4.2 17:37:29 38° NNW 17:37:29 38° NNW 17:41:18 10° NNW
Cosmos 1980 Rocket 3.8 17:29:57 10° W 17:34:02 29° NW 17:34:02 29° NW
CENTAUR R/B 3.7 17:42:32 10° NW 17:47:51 48° NNW 17:47:51 48° NNW
